Погода в Шклове

Беларусь     54°12′30″N   30°17′28″E
темп.,
°C
ветер,
м/с
пор.,
м/с
влажн.,
%
обл.,
%
осадки,
мм/ч
давл.,
гПа
погр.,
м
28 января, чт
чт2800:00−2ююз3597100 0.1 1006167
03:00−1ююз2295100 0.1 100560
06:00−1юв1190100 0.0 100423
09:00−1вюв1196100 0.1 100443
12:00−1вюв2291100 0.0 1003261
15:00−1всв1187100 0.0 1002323
18:00−1ссв2290100 0.0 1001108
21:00−2ссв2295100 0.0 99973
29 января, пт
пт2900:00−2ссз1296100 0.0 99780
03:00−2сз2396100 0.4 995199
06:00−2зсз4697100 0.9 992311
09:00−3з5796100 2.8 990368
12:00−4з6994100 1.6 989450
15:00−4зюз6890100 1.9 989539
18:00−5зюз6995100 0.6 990541
21:00−5зюз6109399 1.1 990520
30 января, сб
сб3000:00−5зюз6119297 0.1 991566
03:00−6зюз6129098 0.2 993565
06:00−7зюз71291100 0.0 993483
09:00−8юз6119298 0.1 994405
12:00−5юз6109199 0.1 994540
15:00−4юз5789100 0.1 994526
18:00−5ююз3793100 0.0 993352
21:00−5ююз2496100 0.1 993142
31 января, вс
вс3100:00−6зюз119798 0.1 99221
03:00−6ссз239699 0.1 99194
06:00−6сз3695100 0.1 991224
09:00−6зсз5993100 0.1 993367
12:00−6з6109188 0.0 996461
15:00−5з6118892 0.0 998666
18:00−5зюз6118999 0.0 1000584
21:00−6зюз5109494 0.1 1002373
1 февраля, пн
пн100:00−8юз499598 0.1 1004235
03:00−9ююз379683 0.1 1005149
06:00−8ююз499597 0.0 1005222
09:00−10ю489681 0.0 1005152
12:00−7ююз359344 0.0 1005263
15:00−6юз239059 0.0 1003268
18:00−8зюз229335 0.0 100421
21:00−9з349218 0.0 100571